Year,Month,Day,Hour,Minute,Value (Times are PST for temperature in C)
2016,06,28,10,11,18.10
2016,06,28,10,12,18.10
2016,06,28,10,13,18.00
2016,06,28,10,14,18.00
2016,06,28,10,15,18.00
2016,06,28,10,16,18.10
2016,06,28,10,17,18.20
2016,06,28,10,18,18.20
2016,06,28,10,19,18.30
2016,06,28,10,20,18.40
2016,06,28,10,21,18.40
2016,06,28,10,22,18.40
2016,06,28,10,23,18.40
2016,06,28,10,24,18.40
2016,06,28,10,25,18.40
2016,06,28,10,26,18.50
2016,06,28,10,27,18.60
2016,06,28,10,28,18.70
2016,06,28,10,29,18.70
2016,06,28,10,30,18.70
2016,06,28,10,31,18.70
2016,06,28,10,32,18.70
2016,06,28,10,33,18.80
2016,06,28,10,34,18.80
2016,06,28,10,35,18.90
2016,06,28,10,36,19.00
2016,06,28,10,37,19.10
2016,06,28,10,38,19.10
2016,06,28,10,39,19.10
2016,06,28,10,40,19.10
2016,06,28,10,41,19.10
2016,06,28,10,42,19.10
2016,06,28,10,43,19.10
2016,06,28,10,44,19.10
2016,06,28,10,45,19.20
2016,06,28,10,46,19.30
2016,06,28,10,47,19.30
2016,06,28,10,48,19.30
2016,06,28,10,49,19.40
2016,06,28,10,50,19.40
2016,06,28,10,51,19.30
2016,06,28,10,52,19.30
2016,06,28,10,53,19.30
2016,06,28,10,54,19.30
2016,06,28,10,55,19.30
2016,06,28,10,56,19.30
2016,06,28,10,57,19.30
2016,06,28,10,58,19.30
2016,06,28,10,59,19.30
2016,06,28,11,00,19.30
2016,06,28,11,01,19.40
2016,06,28,11,02,19.40
2016,06,28,11,03,19.50
2016,06,28,11,04,19.50
2016,06,28,11,05,19.50
2016,06,28,11,06,19.60
2016,06,28,11,07,19.60
2016,06,28,11,08,19.50
2016,06,28,11,09,19.50
2016,06,28,11,10,19.60
2016,06,28,11,11,19.60
2016,06,28,11,12,19.60
2016,06,28,11,13,19.70
2016,06,28,11,14,19.70
2016,06,28,11,15,19.70
2016,06,28,11,16,19.80
2016,06,28,11,17,19.80
2016,06,28,11,18,19.80
2016,06,28,11,19,19.80
2016,06,28,11,20,19.80
2016,06,28,11,21,19.80
2016,06,28,11,22,19.80
2016,06,28,11,23,19.80
2016,06,28,11,24,19.80
2016,06,28,11,25,19.70
2016,06,28,11,26,19.80
2016,06,28,11,27,19.80
2016,06,28,11,28,19.70
2016,06,28,11,29,19.70
2016,06,28,11,30,19.60
2016,06,28,11,31,19.50
2016,06,28,11,32,19.50
2016,06,28,11,33,19.40
2016,06,28,11,34,19.30
2016,06,28,11,35,19.30
2016,06,28,11,36,19.30
2016,06,28,11,37,19.30
2016,06,28,11,38,19.30
2016,06,28,11,39,19.30
2016,06,28,11,40,19.40
2016,06,28,11,41,19.40
2016,06,28,11,42,19.50
2016,06,28,11,43,19.50
2016,06,28,11,44,19.50
2016,06,28,11,45,19.50
2016,06,28,11,46,19.40
2016,06,28,11,47,19.30
2016,06,28,11,48,19.20
2016,06,28,11,49,19.20
2016,06,28,11,50,19.20
2016,06,28,11,51,19.20
2016,06,28,11,52,19.20
2016,06,28,11,53,19.20
2016,06,28,11,54,19.20
2016,06,28,11,55,19.20
2016,06,28,11,56,19.30
2016,06,28,11,57,19.40
2016,06,28,11,58,19.60
2016,06,28,11,59,19.70
2016,06,28,12,00,19.70
2016,06,28,12,01,19.70
2016,06,28,12,02,19.70
2016,06,28,12,03,19.70
2016,06,28,12,04,19.70
2016,06,28,12,05,19.80
2016,06,28,12,06,19.80
2016,06,28,12,07,19.90
2016,06,28,12,08,19.90
2016,06,28,12,09,19.90
2016,06,28,12,10,19.80
2016,06,28,12,11,19.80
2016,06,28,12,12,19.70
2016,06,28,12,13,19.70
2016,06,28,12,14,19.60
2016,06,28,12,15,19.60
2016,06,28,12,16,19.60
2016,06,28,12,17,19.60
2016,06,28,12,18,19.60
2016,06,28,12,19,19.60
2016,06,28,12,20,19.60
2016,06,28,12,21,19.60
2016,06,28,12,22,19.60
2016,06,28,12,23,19.60
2016,06,28,12,24,19.60
2016,06,28,12,25,19.60
2016,06,28,12,26,19.60
2016,06,28,12,27,19.70
2016,06,28,12,28,19.80
2016,06,28,12,29,19.90
2016,06,28,12,30,20.00
2016,06,28,12,31,20.10
2016,06,28,12,32,20.20
2016,06,28,12,33,20.30
2016,06,28,12,34,20.30
2016,06,28,12,35,20.30
2016,06,28,12,36,20.30
2016,06,28,12,37,20.20
2016,06,28,12,38,20.10
2016,06,28,12,39,20.10
2016,06,28,12,40,20.10
2016,06,28,12,41,20.20
2016,06,28,12,42,20.20
2016,06,28,12,43,20.20
2016,06,28,12,44,20.30
2016,06,28,12,45,20.30
2016,06,28,12,46,20.30
2016,06,28,12,47,20.20
2016,06,28,12,48,20.10
2016,06,28,12,49,20.00
2016,06,28,12,50,20.00
2016,06,28,12,51,20.10
2016,06,28,12,52,20.20
2016,06,28,12,53,20.20
2016,06,28,12,54,20.20
2016,06,28,12,55,20.20
2016,06,28,12,56,20.20
2016,06,28,12,57,20.10
2016,06,28,12,58,20.10
2016,06,28,12,59,20.10
2016,06,28,13,00,20.10
2016,06,28,13,01,20.00
2016,06,28,13,02,19.90
2016,06,28,13,03,19.90
2016,06,28,13,04,19.90
2016,06,28,13,05,19.90
2016,06,28,13,06,19.80
2016,06,28,13,07,19.80
2016,06,28,13,08,19.90
2016,06,28,13,09,19.90
2016,06,28,13,10,19.90
2016,06,28,13,11,20.00
2016,06,28,13,12,20.10
2016,06,28,13,13,20.10
2016,06,28,13,14,20.10
2016,06,28,13,15,20.10
2016,06,28,13,16,20.10
2016,06,28,13,17,20.10
2016,06,28,13,18,20.10
2016,06,28,13,19,20.10
2016,06,28,13,20,20.20
2016,06,28,13,21,20.20
2016,06,28,13,22,20.10
2016,06,28,13,23,20.20
2016,06,28,13,24,20.10
2016,06,28,13,25,20.10
2016,06,28,13,26,20.10
2016,06,28,13,27,20.00
2016,06,28,13,28,20.00
2016,06,28,13,29,20.10
2016,06,28,13,30,20.10
2016,06,28,13,31,20.10
2016,06,28,13,32,20.20
2016,06,28,13,33,20.20
2016,06,28,13,34,20.20
2016,06,28,13,35,20.10
2016,06,28,13,36,20.10
2016,06,28,13,37,20.10
2016,06,28,13,38,20.10
2016,06,28,13,39,20.20
2016,06,28,13,40,20.20
2016,06,28,13,41,20.20
2016,06,28,13,42,20.20
2016,06,28,13,43,20.20
2016,06,28,13,44,20.20
2016,06,28,13,45,20.20
2016,06,28,13,46,20.30
2016,06,28,13,47,20.40
2016,06,28,13,48,20.50
2016,06,28,13,49,20.50
2016,06,28,13,50,20.40
2016,06,28,13,51,20.40
2016,06,28,13,52,20.40
2016,06,28,13,53,20.40
2016,06,28,13,54,20.40
2016,06,28,13,55,20.40
2016,06,28,13,56,20.50
2016,06,28,13,57,20.60
2016,06,28,13,58,20.60
2016,06,28,13,59,20.60
2016,06,28,14,00,20.60
2016,06,28,14,01,20.60
2016,06,28,14,02,20.70
2016,06,28,14,03,20.80
2016,06,28,14,04,20.80
2016,06,28,14,05,20.80
2016,06,28,14,06,20.70
2016,06,28,14,07,20.60
2016,06,28,14,08,20.50
2016,06,28,14,09,20.50
2016,06,28,14,10,20.50
2016,06,28,14,11,20.40
2016,06,28,14,12,20.40
2016,06,28,14,13,20.40
2016,06,28,14,14,20.30
2016,06,28,14,15,20.30
2016,06,28,14,16,20.20
2016,06,28,14,17,20.10
2016,06,28,14,18,20.20
2016,06,28,14,19,20.30
2016,06,28,14,20,20.30
2016,06,28,14,21,20.20
2016,06,28,14,22,20.20
2016,06,28,14,23,20.20
2016,06,28,14,24,20.30
2016,06,28,14,25,20.40
2016,06,28,14,26,20.60
2016,06,28,14,27,20.60
2016,06,28,14,28,20.50
2016,06,28,14,29,20.50
2016,06,28,14,30,20.60
2016,06,28,14,31,20.70
2016,06,28,14,32,20.70
2016,06,28,14,33,20.70
2016,06,28,14,34,20.70
2016,06,28,14,35,20.70
2016,06,28,14,36,20.70
2016,06,28,14,37,20.70
2016,06,28,14,38,20.80
2016,06,28,14,39,20.70
2016,06,28,14,40,20.60
2016,06,28,14,41,20.50
2016,06,28,14,42,20.50
2016,06,28,14,43,20.40
2016,06,28,14,44,20.40
2016,06,28,14,45,20.50
2016,06,28,14,46,20.50
2016,06,28,14,47,20.50
2016,06,28,14,48,20.50
2016,06,28,14,49,20.60
2016,06,28,14,50,20.50
2016,06,28,14,51,20.40
2016,06,28,14,52,20.40
2016,06,28,14,53,20.50
2016,06,28,14,54,20.50
2016,06,28,14,55,20.60
2016,06,28,14,56,20.50
2016,06,28,14,57,20.50
2016,06,28,14,58,20.60
2016,06,28,14,59,20.80
2016,06,28,15,00,20.90
2016,06,28,15,01,21.00
2016,06,28,15,02,21.10
2016,06,28,15,03,21.10
2016,06,28,15,04,21.20
2016,06,28,15,05,21.30
2016,06,28,15,06,21.30
2016,06,28,15,07,21.30
2016,06,28,15,08,21.30
2016,06,28,15,09,21.40
2016,06,28,15,10,21.50
2016,06,28,15,11,21.60
2016,06,28,15,12,21.70
2016,06,28,15,13,21.70
2016,06,28,15,14,21.70
2016,06,28,15,15,21.70
2016,06,28,15,16,21.70
2016,06,28,15,17,21.70
2016,06,28,15,18,21.80
2016,06,28,15,19,21.80
2016,06,28,15,20,21.80
2016,06,28,15,21,21.80
2016,06,28,15,22,21.80
2016,06,28,15,23,21.80
2016,06,28,15,24,21.80
2016,06,28,15,25,21.80
2016,06,28,15,26,21.80
2016,06,28,15,27,21.90
2016,06,28,15,28,22.00
2016,06,28,15,29,22.00
2016,06,28,15,30,22.00
2016,06,28,15,31,22.10
2016,06,28,15,32,22.10
2016,06,28,15,33,22.20
2016,06,28,15,34,22.20
2016,06,28,15,35,22.30
2016,06,28,15,36,22.30
2016,06,28,15,37,22.30
2016,06,28,15,38,22.30
2016,06,28,15,39,22.30
2016,06,28,15,40,22.20
2016,06,28,15,41,22.20
2016,06,28,15,42,22.20
2016,06,28,15,43,22.20
2016,06,28,15,44,22.30
2016,06,28,15,45,22.30
2016,06,28,15,46,22.20
2016,06,28,15,47,22.10
2016,06,28,15,48,22.10
2016,06,28,15,49,22.20
2016,06,28,15,50,22.40
2016,06,28,15,51,22.50
2016,06,28,15,52,22.60
2016,06,28,15,53,22.50
2016,06,28,15,54,22.40
2016,06,28,15,55,22.30
2016,06,28,15,56,22.30
2016,06,28,15,57,22.10
2016,06,28,15,58,22.00
2016,06,28,15,59,21.80
2016,06,28,16,00,21.70
2016,06,28,16,01,21.70
2016,06,28,16,02,21.70
2016,06,28,16,03,21.80
2016,06,28,16,04,21.80
2016,06,28,16,05,21.80
2016,06,28,16,06,21.70
2016,06,28,16,07,21.70
2016,06,28,16,08,21.60
2016,06,28,16,09,21.60
2016,06,28,16,10,21.50
2016,06,28,16,11,21.50
2016,06,28,16,12,21.40
2016,06,28,16,13,21.30
2016,06,28,16,14,21.20
2016,06,28,16,15,21.30
2016,06,28,16,16,21.40
2016,06,28,16,17,21.50
2016,06,28,16,18,21.60
2016,06,28,16,19,21.80
2016,06,28,16,20,21.80
2016,06,28,16,21,21.80
2016,06,28,16,22,21.80
2016,06,28,16,23,21.80
2016,06,28,16,24,21.80
2016,06,28,16,25,21.90
2016,06,28,16,26,22.00
2016,06,28,16,27,22.10
2016,06,28,16,28,22.20
2016,06,28,16,29,22.20
2016,06,28,16,30,22.20
2016,06,28,16,31,22.20
2016,06,28,16,32,22.20
2016,06,28,16,33,22.20
2016,06,28,16,34,22.30
2016,06,28,16,35,22.40
2016,06,28,16,36,22.40
2016,06,28,16,37,22.40
2016,06,28,16,38,22.50
2016,06,28,16,39,22.60
2016,06,28,16,40,22.60
2016,06,28,16,41,22.50
2016,06,28,16,42,22.30
2016,06,28,16,43,22.00
2016,06,28,16,44,21.80
2016,06,28,16,45,21.50
2016,06,28,16,46,21.30
2016,06,28,16,47,21.20
2016,06,28,16,48,21.10
2016,06,28,16,49,20.90
2016,06,28,16,50,20.80
2016,06,28,16,51,20.60
2016,06,28,16,52,20.40
2016,06,28,16,53,20.30
2016,06,28,16,54,20.30
2016,06,28,16,55,20.20
2016,06,28,16,56,20.20
2016,06,28,16,57,20.20
2016,06,28,16,58,20.30
2016,06,28,16,59,20.30
2016,06,28,17,00,20.30
2016,06,28,17,01,20.30
2016,06,28,17,02,20.30
2016,06,28,17,03,20.30
2016,06,28,17,04,20.30
2016,06,28,17,05,20.20
2016,06,28,17,06,20.20
2016,06,28,17,07,20.10
2016,06,28,17,08,20.10
2016,06,28,17,09,20.10
2016,06,28,17,10,20.30
2016,06,28,17,11,20.40
2016,06,28,17,12,20.50
2016,06,28,17,13,20.50
2016,06,28,17,14,20.60
2016,06,28,17,15,20.70
2016,06,28,17,16,20.70
2016,06,28,17,17,20.60
2016,06,28,17,18,20.60
2016,06,28,17,19,20.60
2016,06,28,17,20,20.70
2016,06,28,17,21,20.70
2016,06,28,17,22,20.70
2016,06,28,17,23,20.70
2016,06,28,17,24,20.70
2016,06,28,17,25,20.90
2016,06,28,17,26,21.00
2016,06,28,17,27,21.10
2016,06,28,17,28,21.20
2016,06,28,17,29,21.40
2016,06,28,17,30,21.50
2016,06,28,17,31,21.60
2016,06,28,17,32,21.70
2016,06,28,17,33,21.90
2016,06,28,17,34,22.10
2016,06,28,17,35,22.30
2016,06,28,17,36,22.40
2016,06,28,17,37,22.50
2016,06,28,17,38,22.60
2016,06,28,17,39,22.60
2016,06,28,17,40,22.60
2016,06,28,17,41,22.50
2016,06,28,17,42,22.50
2016,06,28,17,43,22.60
2016,06,28,17,44,22.60
2016,06,28,17,45,22.60
2016,06,28,17,46,22.60
2016,06,28,17,47,22.60
2016,06,28,17,48,22.60
2016,06,28,17,49,22.60
2016,06,28,17,50,22.60
2016,06,28,17,51,22.60
2016,06,28,17,52,22.70
2016,06,28,17,53,22.80
2016,06,28,17,54,22.80
2016,06,28,17,55,22.70
2016,06,28,17,56,22.70
2016,06,28,17,57,22.70
2016,06,28,17,58,22.70
2016,06,28,17,59,22.70
2016,06,28,18,00,22.80
2016,06,28,18,01,22.90
2016,06,28,18,02,23.00
2016,06,28,18,03,23.10
2016,06,28,18,04,23.10
2016,06,28,18,05,23.10
2016,06,28,18,06,23.10
2016,06,28,18,07,23.00
2016,06,28,18,08,22.90
2016,06,28,18,09,22.80
2016,06,28,18,10,22.80
2016,06,28,18,11,22.90
2016,06,28,18,12,22.90
2016,06,28,18,13,23.00
2016,06,28,18,14,23.00
2016,06,28,18,15,23.10
2016,06,28,18,16,23.10
2016,06,28,18,17,23.10
2016,06,28,18,18,23.10
2016,06,28,18,19,23.10
2016,06,28,18,20,23.10
2016,06,28,18,21,23.10
2016,06,28,18,22,23.10
2016,06,28,18,23,23.10
2016,06,28,18,24,23.10
2016,06,28,18,25,23.20
2016,06,28,18,26,23.20
2016,06,28,18,27,23.10
2016,06,28,18,28,23.10
2016,06,28,18,29,23.10
2016,06,28,18,30,23.20
2016,06,28,18,31,23.10
2016,06,28,18,32,23.00
2016,06,28,18,33,23.00
2016,06,28,18,34,23.00
2016,06,28,18,35,23.00
2016,06,28,18,36,22.90
2016,06,28,18,37,22.90
2016,06,28,18,38,22.90
2016,06,28,18,39,23.00
2016,06,28,18,40,23.00
2016,06,28,18,41,23.10
2016,06,28,18,42,23.20
2016,06,28,18,43,23.20
2016,06,28,18,44,23.20
2016,06,28,18,45,23.20
2016,06,28,18,46,23.20
2016,06,28,18,47,23.20
2016,06,28,18,48,23.20
2016,06,28,18,49,23.20
2016,06,28,18,50,23.30
2016,06,28,18,51,23.40
2016,06,28,18,52,23.30
2016,06,28,18,53,23.20
2016,06,28,18,54,23.20
2016,06,28,18,55,23.10
2016,06,28,18,56,23.10
2016,06,28,18,57,23.00
2016,06,28,18,58,23.00
2016,06,28,18,59,22.90
2016,06,28,19,00,22.80
2016,06,28,19,01,22.70
2016,06,28,19,02,22.60
2016,06,28,19,03,22.60
2016,06,28,19,04,22.50
2016,06,28,19,05,22.50
2016,06,28,19,06,22.50
2016,06,28,19,07,22.50
2016,06,28,19,08,22.50
2016,06,28,19,09,22.40
2016,06,28,19,10,22.30
2016,06,28,19,11,22.30
2016,06,28,19,12,22.30
2016,06,28,19,13,22.30
2016,06,28,19,14,22.30
2016,06,28,19,15,22.30
2016,06,28,19,16,22.30
2016,06,28,19,17,22.30
2016,06,28,19,18,22.40
2016,06,28,19,19,22.40
2016,06,28,19,20,22.40
2016,06,28,19,21,22.30
2016,06,28,19,22,22.40
2016,06,28,19,23,22.40
2016,06,28,19,24,22.40
2016,06,28,19,25,22.30
2016,06,28,19,26,22.30
2016,06,28,19,27,22.20
2016,06,28,19,28,22.10
2016,06,28,19,29,22.10
2016,06,28,19,30,22.10
2016,06,28,19,31,22.00
2016,06,28,19,32,22.00
2016,06,28,19,33,22.00
2016,06,28,19,34,22.10
2016,06,28,19,35,22.10
2016,06,28,19,36,22.10
2016,06,28,19,37,22.10
2016,06,28,19,38,22.10
2016,06,28,19,39,22.10
2016,06,28,19,40,22.10
2016,06,28,19,41,22.00
2016,06,28,19,42,21.90
2016,06,28,19,43,21.90
2016,06,28,19,44,21.80
2016,06,28,19,45,21.80
2016,06,28,19,46,21.80
2016,06,28,19,47,21.80
2016,06,28,19,48,21.80
2016,06,28,19,49,21.80
2016,06,28,19,50,21.70
2016,06,28,19,51,21.70
2016,06,28,19,52,21.60
2016,06,28,19,53,21.60
2016,06,28,19,54,21.50
2016,06,28,19,55,21.50
2016,06,28,19,56,21.50
2016,06,28,19,57,21.40
2016,06,28,19,58,21.30
2016,06,28,19,59,21.30
2016,06,28,20,00,21.30
2016,06,28,20,01,21.30
2016,06,28,20,02,21.30
2016,06,28,20,03,21.30
2016,06,28,20,04,21.30
2016,06,28,20,05,21.30
2016,06,28,20,06,21.30
2016,06,28,20,07,21.20
2016,06,28,20,08,21.20
2016,06,28,20,09,21.20
2016,06,28,20,10,21.20
2016,06,28,20,11,21.20
2016,06,28,20,12,21.20
2016,06,28,20,13,21.20
2016,06,28,20,14,21.10
2016,06,28,20,15,21.10
2016,06,28,20,16,21.10
2016,06,28,20,17,21.00
2016,06,28,20,18,20.90
2016,06,28,20,19,20.90
2016,06,28,20,20,20.90
2016,06,28,20,21,20.90
2016,06,28,20,22,20.80
2016,06,28,20,23,20.80
2016,06,28,20,24,20.80
2016,06,28,20,25,20.70
2016,06,28,20,26,20.70
2016,06,28,20,27,20.70
2016,06,28,20,28,20.70
2016,06,28,20,29,20.70
2016,06,28,20,30,20.70
2016,06,28,20,31,20.70
2016,06,28,20,32,20.70
2016,06,28,20,33,20.70
2016,06,28,20,34,20.70
2016,06,28,20,35,20.60
2016,06,28,20,36,20.60
2016,06,28,20,37,20.60
2016,06,28,20,38,20.50
2016,06,28,20,39,20.50
2016,06,28,20,40,20.40
2016,06,28,20,41,20.40
2016,06,28,20,42,20.30
2016,06,28,20,43,20.30
2016,06,28,20,44,20.20
2016,06,28,20,45,20.10
2016,06,28,20,46,20.00
2016,06,28,20,47,20.00
2016,06,28,20,48,19.90
2016,06,28,20,49,19.80
2016,06,28,20,50,19.70
2016,06,28,20,51,19.50
2016,06,28,20,52,19.40
2016,06,28,20,53,19.30
2016,06,28,20,54,19.20
2016,06,28,20,55,19.10
2016,06,28,20,56,19.10
2016,06,28,20,57,19.00
2016,06,28,20,58,19.00
2016,06,28,20,59,19.00
2016,06,28,21,00,18.90
2016,06,28,21,01,18.90
2016,06,28,21,02,18.90
2016,06,28,21,03,18.80
2016,06,28,21,04,18.80
2016,06,28,21,05,18.80
2016,06,28,21,06,18.80
2016,06,28,21,07,18.80
2016,06,28,21,08,18.80
2016,06,28,21,09,18.80
2016,06,28,21,10,18.70
2016,06,28,21,11,18.70
2016,06,28,21,12,18.70
2016,06,28,21,13,18.70
2016,06,28,21,14,18.70
2016,06,28,21,15,18.70
2016,06,28,21,16,18.70
2016,06,28,21,17,18.70
2016,06,28,21,18,18.70
2016,06,28,21,19,18.70
2016,06,28,21,20,18.70
2016,06,28,21,21,18.70
2016,06,28,21,22,18.70
2016,06,28,21,23,18.70
2016,06,28,21,24,18.70
2016,06,28,21,25,18.60
2016,06,28,21,26,18.60
2016,06,28,21,27,18.60
2016,06,28,21,28,18.60
2016,06,28,21,29,18.60
2016,06,28,21,30,18.60
2016,06,28,21,31,18.50
2016,06,28,21,32,18.50
2016,06,28,21,33,18.50
2016,06,28,21,34,18.40
2016,06,28,21,35,18.40
2016,06,28,21,36,18.30
2016,06,28,21,37,18.30
2016,06,28,21,38,18.30
2016,06,28,21,39,18.20
2016,06,28,21,40,18.20
2016,06,28,21,41,18.20
2016,06,28,21,42,18.10
2016,06,28,21,43,18.10
2016,06,28,21,44,18.10
2016,06,28,21,45,18.10
2016,06,28,21,46,18.10
2016,06,28,21,47,18.10
2016,06,28,21,48,18.10
2016,06,28,21,49,18.10
2016,06,28,21,50,18.00
2016,06,28,21,51,18.00
2016,06,28,21,52,18.00
2016,06,28,21,53,17.90
2016,06,28,21,54,17.90
2016,06,28,21,55,17.90
2016,06,28,21,56,17.80
2016,06,28,21,57,17.80
2016,06,28,21,58,17.80
2016,06,28,21,59,17.80
2016,06,28,22,00,17.70
2016,06,28,22,01,17.70
2016,06,28,22,02,17.60
2016,06,28,22,03,17.60
2016,06,28,22,04,17.60
2016,06,28,22,05,17.50
2016,06,28,22,06,17.50
2016,06,28,22,07,17.50
2016,06,28,22,08,17.40
2016,06,28,22,09,17.40
2016,06,28,22,10,17.40
2016,06,28,22,11,17.40
2016,06,28,22,12,17.30
2016,06,28,22,13,17.30
2016,06,28,22,14,17.30
2016,06,28,22,15,17.30
2016,06,28,22,16,17.20
2016,06,28,22,17,17.20
2016,06,28,22,18,17.20
2016,06,28,22,19,17.20
2016,06,28,22,20,17.20
2016,06,28,22,21,17.10
2016,06,28,22,22,17.10
2016,06,28,22,23,17.10
2016,06,28,22,24,17.10
2016,06,28,22,25,17.10
2016,06,28,22,26,17.00
2016,06,28,22,27,17.00
2016,06,28,22,28,16.90
2016,06,28,22,29,16.90
2016,06,28,22,30,16.80
2016,06,28,22,31,16.80
2016,06,28,22,32,16.80
2016,06,28,22,33,16.80
2016,06,28,22,34,16.70
2016,06,28,22,35,16.70
2016,06,28,22,36,16.60
2016,06,28,22,37,16.60
2016,06,28,22,38,16.60
2016,06,28,22,39,16.50
2016,06,28,22,40,16.50
2016,06,28,22,41,16.40
2016,06,28,22,42,16.40
2016,06,28,22,43,16.30
2016,06,28,22,44,16.30
2016,06,28,22,45,16.20
2016,06,28,22,46,16.20
2016,06,28,22,47,16.20
2016,06,28,22,48,16.10
2016,06,28,22,49,16.10
2016,06,28,22,50,16.00
2016,06,28,22,51,16.00
2016,06,28,22,52,15.90
2016,06,28,22,53,15.90
2016,06,28,22,54,15.90
2016,06,28,22,55,15.90
2016,06,28,22,56,15.90
2016,06,28,22,57,15.80
2016,06,28,22,58,15.80
2016,06,28,22,59,15.80
2016,06,28,23,00,15.80
2016,06,28,23,01,15.80
2016,06,28,23,02,15.80
2016,06,28,23,03,15.80
2016,06,28,23,04,15.80
2016,06,28,23,05,15.70
2016,06,28,23,06,15.70
2016,06,28,23,07,15.70
2016,06,28,23,08,15.70
2016,06,28,23,09,15.70
2016,06,28,23,10,15.70
2016,06,28,23,11,15.60
2016,06,28,23,12,15.60
2016,06,28,23,13,15.60
2016,06,28,23,14,15.60
2016,06,28,23,15,15.60
2016,06,28,23,16,15.50
2016,06,28,23,17,15.50
2016,06,28,23,18,15.50
2016,06,28,23,19,15.50
2016,06,28,23,20,15.50
2016,06,28,23,21,15.40
2016,06,28,23,22,15.40
2016,06,28,23,23,15.40
2016,06,28,23,24,15.40
2016,06,28,23,25,15.40
2016,06,28,23,26,15.40
2016,06,28,23,27,15.30
2016,06,28,23,28,15.30
2016,06,28,23,29,15.30
2016,06,28,23,30,15.30
2016,06,28,23,31,15.30
2016,06,28,23,32,15.30
2016,06,28,23,33,15.30
2016,06,28,23,34,15.30
2016,06,28,23,35,15.30
2016,06,28,23,36,15.30
2016,06,28,23,37,15.30
2016,06,28,23,38,15.30
2016,06,28,23,39,15.30
2016,06,28,23,40,15.20
2016,06,28,23,41,15.20
2016,06,28,23,42,15.20
2016,06,28,23,43,15.20
2016,06,28,23,44,15.20
2016,06,28,23,45,15.20
2016,06,28,23,46,15.20
2016,06,28,23,47,15.10
2016,06,28,23,48,15.10
2016,06,28,23,49,15.10
2016,06,28,23,50,15.10
2016,06,28,23,51,15.00
2016,06,28,23,52,15.00
2016,06,28,23,53,14.90
2016,06,28,23,54,14.90
2016,06,28,23,55,14.80
2016,06,28,23,56,14.80
2016,06,28,23,57,14.80
2016,06,28,23,58,14.70
2016,06,28,23,59,14.70
